Eagle, AK

3:43 AM AKST on November 21, 2017 (GMT -0900)
Eagle

Weather History for PAEG - September, 2012

Change the Weather History Date:

Tuesday, September 18, 2012

  Actual Average (PABN) Record (PABN)
Temperature  
Mean Temperature 40 °F -  
Max Temperature 59 °F 42 °F 57 °F (2010)
Min Temperature 23 °F 30 °F 19 °F (2003)
Degree Days  
Heating Degree Days 25    
Moisture  
Dew Point 24 °F    
Average Humidity 54    
Maximum Humidity 92    
Minimum Humidity 30    
Precipitation  
Precipitation 0.00 in - - ()
Sea Level Pressure  
Sea Level Pressure 29.80 in    
Wind  
Wind Speed 4 mph (SE)    
Max Wind Speed 12 mph    
Max Gust Speed 26 mph    
Visibility 10 miles    
Events      
Averages and records for this station are not official NWS values.
T = Trace of Precipitation, MM = Missing Value Source: NWS Daily Summary

Daily Weather History Graph

Daily Weather History Graph

Search for Another Location

Airport or City:

Trip Planner

Search our weather history database for the weather conditions in past years. The results will help you decide how hot, cold, wet, or windy it might be!

Date:

Astronomy

Sep. 18, 2012 Rise Set
Actual Time 6:57 AM AKDT 7:37 PM AKDT
Civil Twilight 6:07 AM AKDT 8:26 PM AKDT
Nautical Twilight 5:06 AM AKDT 9:28 PM AKDT
Astronomical Twilight 3:51 AM AKDT 10:40 PM AKDT
Moon 11:46 AM AKDT (9/18) 7:21 PM AKDT (9/18)
Length of Visible Light 14h 18m
Length of Day
12h 40m
Waxing Crescent, 10% of the Moon is Illuminated
Sep 18
Waxing Crescent
Sep 22
First Quarter
Sep 29
Full
Oct 7
Last Quarter
Oct 15
New

Hourly Weather History & Observations

Time (AKDT) Temp. Windchill Dew Point Humidity Pressure Visibility Wind Dir Wind Speed Gust Speed Precip Events Conditions
12:53 AM 27.0 °F - 24.1 °F 89% 29.86 in 10.0 mi Calm Calm - N/A   Clear
1:53 AM 25.0 °F - 21.9 °F 88% 29.87 in 10.0 mi Calm Calm - N/A   Clear
2:53 AM 25.0 °F 19.3 °F 21.9 °F 88% 29.87 in 10.0 mi South 4.6 mph - N/A   Clear
3:53 AM 23.0 °F 17.0 °F 21.0 °F 92% 29.86 in 10.0 mi South 4.6 mph - N/A   Clear
4:53 AM 23.0 °F - 21.0 °F 92% 29.86 in 10.0 mi Calm Calm - N/A   Clear
5:53 AM 24.1 °F - 21.0 °F 88% 29.86 in 10.0 mi Calm Calm - N/A   Clear
6:53 AM 23.0 °F - 21.0 °F 92% 29.86 in 10.0 mi Calm Calm - N/A   Clear
7:53 AM 28.0 °F - 25.0 °F 88% 29.85 in 10.0 mi Calm Calm - N/A   Clear
8:53 AM 43.0 °F 37.7 °F 24.1 °F 47% 29.83 in 10.0 mi SE 9.2 mph 19.6 mph N/A   Clear
9:53 AM 46.0 °F 41.4 °F 24.1 °F 42% 29.83 in 10.0 mi SE 9.2 mph 16.1 mph N/A   Clear
10:53 AM 46.9 °F - 24.1 °F 41% 29.80 in 10.0 mi SE 9.2 mph 19.6 mph N/A   Overcast
11:53 AM 51.1 °F - 23.0 °F 33% 29.77 in 10.0 mi SE 11.5 mph 23.0 mph N/A   Clear
12:53 PM 53.1 °F - 23.0 °F 31% 29.77 in 10.0 mi SE 11.5 mph 26.5 mph N/A   Clear
1:53 PM 54.0 °F - 24.1 °F 31% 29.75 in 10.0 mi SE 11.5 mph 23.0 mph N/A   Clear
2:53 PM 55.0 °F - 24.1 °F 30% 29.75 in 10.0 mi SSE 9.2 mph 21.9 mph N/A   Scattered Clouds
3:53 PM 55.9 °F - 26.1 °F 32% 29.74 in 10.0 mi SE 6.9 mph - N/A   Scattered Clouds
4:53 PM 57.9 °F - 26.1 °F 30% 29.73 in 10.0 mi Calm Calm - N/A   Scattered Clouds
5:53 PM 57.9 °F - 26.1 °F 30% 29.74 in 10.0 mi SSE 9.2 mph - N/A   Mostly Cloudy
6:53 PM 57.0 °F - 27.0 °F 32% 29.75 in 10.0 mi South 9.2 mph - N/A   Mostly Cloudy
7:53 PM 54.0 °F - 27.0 °F 35% 29.76 in 10.0 mi ESE 8.1 mph - N/A   Partly Cloudy
8:53 PM 52.0 °F - 27.0 °F 38% 29.78 in 10.0 mi SE 9.2 mph 18.4 mph N/A   Clear
9:53 PM 51.1 °F - 26.1 °F 38% 29.78 in 10.0 mi Variable 6.9 mph - N/A   Clear
10:53 PM 51.1 °F - 27.0 °F 39% 29.81 in 10.0 mi SE 8.1 mph 16.1 mph N/A   Clear
11:53 PM 50.0 °F - 27.0 °F 41% 29.83 in 10.0 mi SE 8.1 mph 18.4 mph N/A   Clear